Location: Ferchesar
(52.6477°N, 12.4298°E)
Time: 04:35:24
(UTC+01:00)

Tiros 1 - Pass Details

Date: 03 December 2021
Orbit: 629 x 664 km, 48.4° (Epoch: 21 January)

Event Time Altitude Azimuth Distance (km) Brightness Sun altitude
Rises 22:45:44 0° 271° (W) 2,947 - -56.4°
Reaches altitude 10° 22:48:08 10° 265° (W) 2,042 - -56.6°
Maximum altitude 22:52:36 44° 193° (SSW) 901 - -56.9°
Drops below altitude 10° 22:57:06 10° 122° (ESE) 2,060 - -57.3°
Sets 22:59:32 0° 116° (ESE) 2,975 - -57.4°
